Location: Saint-Michel-des-Saints
(46.6688°N, 73.9573°W)
Time: 09:42:56
(UTC-04:00)

Tiangong 2 - Visible Passes

Search period start: 21 March 2019 00:00
Search period end: 31 March 2019 00:00
Orbit: 379 x 390 km, 42.8° (Epoch: 21 March)

Date Brightness Start Highest point End Pass type
(mag) Time Alt. Az. Time Alt. Az. Time Alt. Az.
21 Mar 3.6 04:43:55 16° SE 04:43:55 16° SE 04:44:45 10° ESE visible
21 Mar 3.2 06:16:15 10° WSW 06:18:03 14° SSW 06:19:51 10° S visible
22 Mar 3.0 05:19:39 18° S 05:19:39 18° S 05:21:13 10° SSE visible
30 Mar 3.3 20:23:14 10° S 20:24:17 11° SSE 20:24:17 11° SSE visible
